Regional Weather Roundup
Issued by NWS

Home | Current Version | Previous Version | Graphics & Text | Print | Product List | Glossary On
Versions: 1 2 3 4 5 6 7 8 9 10 11 12 13 14 15 16 17 18 19 20 21 22 23 24 25 26 27 28 29 30 31 32 33 34 35 36 37 38 39 40 41 42 43 44 45 46 47 48 49 50
000
ASUS43 KTOP 240659
RWRKS

WEATHER ROUNDUP FOR KANSAS
NATIONAL WEATHER SERVICE GOODLAND KS
200 AM CDT MON APR 24 2017

NOTE:  "FAIR" INDICATES FEW OR NO CLOUDS BELOW 12,000 FEET WITH NO
SIGNIFICANT WEATHER AND/OR OBSTRUCTIONS TO VISIBILITY.

KSZ001>006-013>018-027>032-041>047-240800-
NORTHWEST KANSAS

CITY           SKY/WX    TMP DP  RH WIND       PRES   REMARKS
GOODLAND       CLOUDY    53  37  54 S23       29.62F
HAYS           CLOUDY    52  36  54 S16G24    29.79F
HILL CITY      CLOUDY    55  37  50 S17G24    29.75F
RUSSELL        CLOUDY    53  35  50 S23G29    29.79F
$$

KSZ061>065-074>080-084>089-240800-
SOUTHWEST KANSAS

CITY           SKY/WX    TMP DP  RH WIND       PRES   REMARKS
DODGE CITY     CLOUDY    50  37  61 S21       29.82F
ELKHART          N/A     51  33  50 S18         N/A
GARDEN CITY    CLOUDY    51  35  54 S20G29    29.76F
$$

KSZ066>073-081>083-090>101-240800-
SOUTHEAST KANSAS

CITY           SKY/WX    TMP DP  RH WIND       PRES   REMARKS
CHANUTE        CLOUDY    43  40  89 SE5       29.95F
COFFEYVILLE    CLOUDY    44  43  96 E5        29.95F
HUTCHINSON     CLEAR     52  37  56 SE15      29.87F
MEDICINE LODGE   N/A     50  38  63 S9        29.88F
PARSONS        CLOUDY    44  42  93 E3        29.96F
WICHITA INTL   CLEAR     49  40  71 S12       29.91F
WICHITA JABRA  CLEAR     50  39  66 S10       29.91F
WINFIELD       CLEAR     49  40  71 SE7       29.94F
$$

KSZ007>012-019>026-033>040-048>060-102>105-240800-
NORTHEAST KANSAS

CITY           SKY/WX    TMP DP  RH WIND       PRES   REMARKS
CONCORDIA      CLOUDY    52  37  56 S17       29.83F
EMPORIA        PTCLDY    48  42  80 SE9       29.92F
LAWRENCE       CLOUDY    46  43  89 E3        29.95F
MANHATTAN      CLOUDY    49  40  71 S6        29.90F
OLATHE IND     CLOUDY    46  37  71 S6        29.96F
OLATHE EXE     CLOUDY    50  38  63 S3        29.96F
SALINA         CLOUDY    50  39  66 S10       29.86F
TOPEKA BILLARD CLOUDY    49  40  71 SE7       29.93F
TOPEKA FORBES  CLOUDY    51  39  63 SE6       29.93F
$$



USA.gov is the U.S. government's official web portal to all federal, state and local government web resources and services.